Flag for Poland Weather past 2 weeks in Katowice, Poland

Now
75 °F

Passing clouds.


Feels Like: 78 °F
Forecast: 56 / 82 °F
Wind: 8 mph from East

Location: Katowice Airport

Current Time: Jul 2, 2015 at 10:51:00 AM

Latest Report: Jul 2, 2015 at 10:00 AM


Visibility: N/A

Pressure: 30.30 "Hg

Humidity: 41%

Dew point: 50 °F

Location of KatowiceLocation

Historic Weather in Katowice — Graph

°F

Katowice temperature yesterday

Maximum temperature yesterday: 77 °F (at 3:00 PM)
Minimum temperature yesterday: 52 °F (at 4:00 AM)
Average temperature yesterday: 66 °F

Past Weeks' High & Low Weather Summary

 TemperatureHumidityPressure
High77 °F (Jul 1, 3:00 PM)100% (Jun 18, 12:30 AM)30.30 "Hg (Jun 18, 12:30 AM)
Low39 °F (Jun 20, 4:30 AM)39% (Jun 30, 4:00 PM)29.74 "Hg (Jun 23, 3:30 AM)
Average58 °F76%30.04 "Hg
* Reported Jun 17 10:30 AM — Jul 2 10:00 AM, Katowice, Weather by CustomWeather, © 2015

Note: Actual official high and low records may vary slightly from our data, if they occured in-between our weather recording intervals... More about our weather records

Advertising

Katowice weather history for previous 24 hours

 ConditionsComfort  
Time TempWeatherWind HumidityBarometerVisibility
10:00 AM
Thu, Jul 2
75 °FPassing clouds.8 mph41%30.30 "HgN/A
9:30 AM73 °FSunny.2 mph44%30.30 "Hg10 mi
9:00 AM73 °FSunny.2 mph44%30.30 "Hg10 mi
8:30 AM72 °FSunny.2 mph50%30.30 "Hg10 mi
8:00 AM68 °FPassing clouds.3 mph60%30.30 "HgN/A
7:30 AM66 °FPassing clouds.3 mph60%30.30 "HgN/A
7:00 AM61 °FSunny.1 mph83%30.27 "Hg10 mi
6:00 AM52 °FSunny.2 mph88%30.27 "Hg10 mi
5:30 AM48 °FPassing clouds.3 mph94%30.27 "HgN/A
5:00 AM46 °FFog.1 mph100%30.27 "HgN/A
4:30 AM48 °FFog.1 mph94%30.27 "HgN/A
4:00 AM48 °FClear.2 mph94%30.27 "Hg10 mi
3:30 AM48 °FClear.2 mph94%30.27 "Hg10 mi
3:00 AM50 °FClear.1 mph94%30.27 "Hg10 mi
2:30 AM50 °FClear.1 mph94%30.27 "Hg10 mi
2:00 AM50 °FClear.1 mph94%30.27 "Hg10 mi
1:30 AM52 °FClear.2 mph88%30.27 "Hg10 mi
1:00 AM54 °FClear.3 mph88%30.27 "Hg10 mi
12:30 AM54 °FClear.3 mph88%30.27 "Hg10 mi
12:00 AM55 °FClear.3 mph82%30.27 "Hg10 mi
11:00 PM
Wed, Jul 1
59 °FClear.2 mph77%30.27 "Hg10 mi
10:30 PM61 °FClear.2 mph72%30.24 "Hg10 mi
10:00 PM64 °FClear.3 mph60%30.24 "Hg10 mi
9:30 PM66 °FSunny.5 mph56%30.24 "Hg10 mi
9:00 PM68 °FSunny.3 mph56%30.21 "Hg10 mi
8:30 PM72 °FPassing clouds.5 mph47%30.21 "HgN/A
8:00 PM73 °FPassing clouds.3 mph44%30.21 "HgN/A
7:30 PM73 °FPassing clouds.5 mph44%30.21 "HgN/A
7:00 PM75 °FPassing clouds.6 mph41%30.21 "HgN/A
6:30 PM73 °FPassing clouds.6 mph47%30.21 "HgN/A
6:00 PM75 °FPassing clouds.5 mph44%30.18 "HgN/A
5:30 PM75 °FPassing clouds.6 mph44%30.21 "HgN/A
5:00 PM75 °FPassing clouds.7 mph44%30.21 "HgN/A
4:30 PM77 °FPassing clouds.7 mph42%30.21 "HgN/A
4:00 PM75 °FPassing clouds.6 mph44%30.21 "HgN/A
3:30 PM77 °FPassing clouds.7 mph44%30.21 "HgN/A
3:00 PM77 °FSunny.5 mph42%30.21 "Hg10 mi
2:30 PM73 °FPassing clouds.6 mph47%30.21 "HgN/A
2:00 PM75 °FPassing clouds.6 mph47%30.21 "HgN/A
1:30 PM75 °FPassing clouds.7 mph47%30.21 "HgN/A
1:00 PM75 °FPassing clouds.8 mph39%30.21 "HgN/A
12:30 PM72 °FScattered clouds.7 mph50%30.21 "HgN/A
12:00 PM72 °FScattered clouds.6 mph53%30.21 "HgN/A
11:30 AM72 °FScattered clouds.8 mph53%30.21 "HgN/A
11:00 AM73 °FPassing clouds.5 mph50%30.21 "HgN/A
10:30 AM72 °FPassing clouds.6 mph50%30.21 "HgN/A
10:00 AM72 °FScattered clouds.6 mph57%30.21 "HgN/A
Weather by CustomWeather, © 2015

See weather overviewHow to use our weather pages